Theta_e
302 294 292 291 294 297 298 299 299 299 300 300 299 299 297 297 299 301 302 305 305 302 300 302 302 302 304 308 313 316 318 321 324 325 325 327 327 326 328 330 333 336 336 340 341 343 344 345 345 345 345 346 345 345 344 343 343 344 344 344 342 344 346 347 341 341 343 343 341 343 343 341 344 344 346 346 347 348 347 347 346 345 345 347 346 345
300 293 293 296 297 299 299 300 300 299 300 299 299 298 297 298 297 301 301 304 305 302 300 303 302 302 304 307 311 316 318 318 322 321 321 325 325 323 327 328 331 335 340 341 341 342 343 343 345 345 345 344 342 343 343 342 343 345 345 344 343 344 347 343 347 347 346 344 343 342 342 343 342 343 342 343 346 347 348 348 347 347 348 347 347 346
294 292 295 298 300 301 301 300 300 299 298 299 297 298 297 298 300 302 302 304 304 302 300 302 301 302 304 306 309 313 316 321 322 325 330 327 325 325 326 329 332 335 336 338 339 341 342 344 344 343 344 344 342 342 343 344 344 345 345 342 342 345 341 341 339 337 338 340 345 344 345 347 343 346 346 345 346 348 348 349 348 348 348 348 347 347
291 294 298 300 301 299 300 300 299 299 299 298 297 297 295 299 297 295 300 302 303 301 300 302 300 302 305 307 308 312 315 320 321 321 326 329 327 328 329 331 330 331 335 337 338 337 337 337 343 342 342 342 338 339 341 343 344 344 341 336 334 334 334 334 334 333 336 338 339 345 346 347 346 344 346 347 347 348 348 346 348 348 348 346 346 346
294 298 301 300 300 299 297 299 298 297 295 298 298 298 297 298 298 299 299 301 302 302 303 302 300 300 303 303 304 310 315 319 320 320 321 325 329 324 324 326 330 331 335 335 337 337 332 333 329 333 339 337 329 334 339 343 341 337 332 331 333 333 335 336 336 333 334 335 337 343 346 347 346 346 344 343 343 346 345 345 346 346 347 346 345 346
297 301 302 299 299 299 297 297 297 297 295 296 298 299 299 299 299 299 301 299 297 296 300 300 294 295 301 303 303 307 311 314 319 319 319 322 327 325 321 320 323 333 336 334 331 327 328 326 327 334 334 328 333 337 338 339 335 332 331 331 332 333 333 335 334 335 336 335 335 338 341 338 339 338 339 337 340 340 341 342 346 346 345 345 345 344
298 302 301 298 298 298 297 297 298 299 295 295 295 300 299 299 299 299 298 298 293 291 298 302 294 291 301 301 303 306 309 311 317 317 320 321 323 326 326 323 324 329 327 323 325 324 323 325 328 328 325 329 336 335 337 337 335 333 332 333 332 333 334 337 340 336 337 333 335 336 339 340 339 337 338 340 343 344 343 345 344 345 346 343 343 344
300 300 299 299 298 296 295 294 298 298 295 293 300 300 299 299 298 298 298 298 297 300 301 301 299 294 294 299 305 307 309 309 312 315 318 318 318 320 327 330 331 330 324 321 322 323 323 326 329 325 326 333 336 336 336 336 334 332 333 334 334 334 335 340 339 338 337 335 335 338 341 340 337 339 339 341 342 344 344 343 343 343 343 344 343 343
299 297 298 296 297 296 294 297 299 300 296 297 300 301 299 299 299 299 298 297 298 297 294 297 300 293 294 301 304 306 305 306 309 312 320 319 322 322 323 324 324 321 322 322 321 322 326 327 328 327 329 336 336 335 335 335 335 335 335 336 335 337 339 341 338 337 339 338 338 339 342 339 342 341 342 342 343 342 343 342 342 342 341 342 343 341
300 300 300 299 297 294 298 299 300 299 295 299 301 302 301 300 299 299 297 297 297 294 290 295 298 292 292 299 301 304 303 303 308 312 318 318 320 320 318 322 323 323 322 323 322 325 326 327 329 334 336 337 336 333 332 333 336 336 337 338 337 339 339 337 337 335 335 335 336 341 342 340 339 340 342 342 341 341 342 341 341 341 340 340 340 342
300 304 304 300 297 299 299 300 300 300 300 302 301 299 298 298 298 299 298 297 295 288 292 297 299 295 290 296 300 300 301 305 308 311 315 317 317 318 319 323 326 324 325 322 322 325 326 327 329 335 337 333 328 329 331 332 336 337 338 339 337 337 335 333 331 334 338 334 338 341 341 341 340 341 340 339 339 339 339 338 339 338 338 339 339 339
300 300 300 301 303 302 302 299 301 301 301 299 297 296 296 295 297 295 295 297 288 286 294 298 299 298 289 294 300 306 307 308 309 309 311 314 315 316 321 323 325 327 324 323 323 326 327 327 331 336 335 331 331 331 330 329 333 335 336 335 332 328 331 334 334 336 336 339 342 342 342 342 342 341 339 338 338 338 337 338 337 337 336 336 336 337
296 297 300 301 305 302 299 297 297 299 299 298 296 295 290 288 288 285 290 285 286 286 294 298 298 295 294 299 303 305 306 308 310 310 311 314 315 317 320 324 326 327 326 325 325 326 327 327 331 334 334 333 330 330 331 332 332 334 333 331 327 324 329 330 330 332 334 338 340 342 342 342 341 341 340 339 338 338 337 337 336 335 333 333 333 334
293 298 298 299 301 302 300 293 294 292 295 295 293 292 289 285 283 280 285 288 288 293 297 297 299 293 298 300 304 305 308 309 311 312 313 314 315 317 325 322 326 328 327 326 327 329 328 329 333 335 334 333 332 332 333 333 333 333 331 331 330 331 332 332 332 332 335 338 341 342 342 341 340 340 340 339 337 337 336 335 334 334 333 332 332 332
286 287 293 297 294 301 300 299 297 295 295 295 297 294 292 291 286 280 285 282 285 289 293 298 293 290 293 297 305 306 310 311 311 311 313 315 316 318 323 328 327 327 327 325 330 331 330 332 334 334 335 335 334 334 334 334 334 332 329 329 333 334 334 334 334 330 330 335 339 341 341 340 340 338 338 337 337 336 335 335 334 333 332 331 332 331
290 291 296 300 300 301 299 302 303 298 296 297 297 298 293 291 296 287 289 290 290 289 290 292 291 297 296 305 307 308 308 308 309 310 317 317 317 319 328 329 328 329 330 330 332 331 331 334 335 334 335 334 334 334 335 335 335 336 334 333 334 335 336 337 331 330 333 335 337 339 339 339 338 337 337 336 336 336 335 334 333 332 331 331 330 332
291 290 298 299 302 299 300 302 302 302 289 294 295 291 294 300 298 291 291 296 293 290 287 294 294 298 303 303 306 306 306 307 309 311 312 316 315 328 327 328 327 328 330 330 332 332 332 333 335 335 336 334 333 334 335 336 337 337 336 336 335 337 338 337 337 335 336 338 338 337 338 338 337 337 336 335 334 334 334 333 332 331 330 330 330 331
290 290 297 297 295 301 303 303 303 302 301 297 291 295 300 302 301 295 286 289 288 285 286 294 291 293 294 290 304 305 305 306 308 308 310 312 313 324 326 327 329 329 332 333 334 334 334 333 332 335 335 334 334 336 336 336 338 338 336 336 336 336 336 338 339 337 337 337 336 336 336 336 336 335 334 334 333 333 332 331 330 330 328 328 329 329
297 289 294 297 298 300 302 302 299 302 303 298 295 303 294 289 288 294 291 283 283 283 286 291 293 293 294 295 301 302 304 306 307 309 308 308 312 313 321 327 329 332 332 332 333 332 332 332 333 334 333 334 337 337 336 336 337 337 337 337 337 337 338 338 337 337 336 336 334 334 334 334 333 333 333 332 332 331 330 329 328 328 328 329 328 327
298 289 290 298 297 299 299 298 290 295 300 302 303 298 301 298 294 290 291 293 291 284 285 288 292 288 297 298 302 304 306 307 306 307 309 310 311 313 314 321 325 325 329 330 330 332 332 332 332 333 333 334 336 336 336 336 336 336 337 337 337 338 338 337 337 336 334 334 333 332 333 333 332 331 330 330 330 329 327 327 327 327 326 326 326 326
293 298 285 293 298 298 291 295 293 295 293 294 296 295 296 297 300 298 298 293 290 286 286 286 285 292 300 303 303 305 307 308 308 307 309 311 314 314 314 324 328 328 329 329 331 332 331 331 331 333 334 334 335 337 337 336 336 336 336 335 335 335 334 334 333 333 331 331 331 331 330 330 330 329 329 328 328 328 327 326 326 326 326 326 325 324
293 293 287 291 291 291 293 298 298 299 298 296 295 294 295 293 292 288 287 297 295 291 286 286 285 296 303 305 305 306 310 310 310 309 309 312 315 316 318 326 329 330 330 330 330 331 331 330 332 333 334 335 335 334 335 335 335 335 334 334 332 330 330 330 330 329 329 329 329 329 328 328 328 328 327 326 325 324 324 324 324 325 324 323 323 323
299 296 293 288 291 292 296 299 301 302 301 300 298 296 299 298 297 292 285 290 294 294 296 294 288 290 310 309 306 309 311 311 312 311 310 312 316 318 320 326 331 331 329 330 330 331 330 330 331 332 332 332 333 333 333 333 333 333 332 332 331 329 329 330 329 329 329 329 328 327 327 327 326 326 325 324 323 322 322 322 322 322 322 322 322 321
301 292 290 291 295 297 298 301 301 301 301 298 298 300 298 296 296 295 294 296 292 293 291 291 287 294 310 314 318 315 313 319 320 320 320 319 321 321 329 329 329 328 329 330 330 330 330 330 330 331 330 331 331 331 331 331 331 331 331 330 330 330 330 330 329 329 328 327 326 326 324 324 324 324 322 321 321 321 321 321 321 321 321 321 321 320
290 293 292 287 288 290 293 296 295 299 299 296 296 297 298 299 299 299 299 299 291 294 293 291 286 293 308 310 316 311 313 318 318 320 321 322 325 327 328 328 328 328 329 330 329 328 329 328 328 329 330 329 329 331 330 329 329 330 330 330 329 329 329 328 328 326 326 325 324 323 322 322 322 322 321 320 319 319 320 320 320 320 320 320 320 319
294 294 292 285 282 280 280 282 284 288 292 296 298 297 298 298 298 296 290 293 288 293 294 291 291 301 309 314 311 312 311 312 319 322 324 325 325 324 326 326 326 328 328 329 329 329 328 328 329 329 330 330 330 331 330 329 329 329 329 330 329 327 326 326 326 325 324 324 322 321 320 320 320 320 319 319 319 320 320 320 320 319 319 319 319 319
295 298 295 293 289 287 289 293 297 296 295 292 295 296 296 297 299 299 297 292 289 293 292 295 297 300 303 304 306 309 310 316 317 320 320 321 323 325 326 325 324 324 326 328 328 328 328 328 328 330 330 330 331 330 329 329 329 328 328 327 327 326 325 325 324 324 323 322 322 320 319 318 318 318 318 318 319 319 319 319 320 319 318 319 319 318
296 292 295 296 295 294 296 295 297 296 294 294 294 295 296 296 297 298 292 291 297 293 289 297 299 297 300 303 306 305 311 315 318 317 318 320 321 323 325 323 317 322 324 327 327 327 326 327 328 329 329 329 329 328 327 327 328 327 326 324 325 324 323 323 323 322 321 319 318 317 317 317 317 318 317 318 318 318 319 319 318 318 318 318 317 318
296 290 296 296 294 296 297 297 297 296 296 296 296 297 296 296 296 295 296 298 299 292 290 298 300 297 299 306 308 311 313 314 315 317 318 321 321 323 322 320 319 319 322 324 326 325 324 324 326 326 326 327 327 325 325 326 325 325 325 323 321 321 321 322 321 320 318 317 315 315 316 316 317 317 317 317 318 318 319 318 318 318 318 317 317 317
297 292 296 296 295 296 296 297 298 296 296 296 296 296 297 297 297 297 298 299 299 298 299 299 300 299 302 306 309 313 312 312 315 318 318 320 319 320 320 319 318 319 321 322 324 323 323 323 324 324 322 322 323 322 321 320 320 321 320 319 320 320 320 320 318 317 316 315 315 315 315 316 317 317 317 318 317 318 318 318 318 318 318 317 318 317
296 291 295 296 293 294 296 297 298 297 296 295 296 296 297 297 297 298 299 299 300 299 300 300 299 299 303 317 315 318 318 317 318 317 316 319 320 320 320 320 319 320 323 323 323 322 321 321 321 320 320 319 317 317 317 318 318 319 318 318 318 318 318 317 316 316 313 313 314 315 315 316 316 316 316 317 317 318 317 317 318 318 317 317 317 317
297 292 297 295 289 291 296 296 297 297 296 295 295 296 296 296 295 297 295 299 298 297 299 298 298 298 304 315 317 318 317 316 316 316 316 317 320 319 319 319 319 320 321 320 319 319 318 318 318 317 316 315 316 317 317 317 317 316 316 316 316 316 317 317 316 313 313 313 314 314 315 316 316 316 316 317 316 317 317 317 317 317 317 317 317 317
296 295 291 291 288 288 298 299 297 296 294 290 290 296 297 298 299 299 299 301 300 301 296 293 296 303 310 313 313 315 315 315 315 315 316 318 321 321 320 319 319 319 319 318 317 317 317 316 315 315 315 316 315 315 316 316 315 314 314 314 314 315 316 315 314 313 313 314 314 314 314 315 315 315 315 315 316 317 317 317 317 317 317 316 317 317
297 297 293 296 287 289 294 298 297 292 283 285 298 301 300 298 299 297 297 299 302 302 299 301 302 304 308 309 310 314 314 314 316 318 319 319 320 320 320 319 319 318 318 317 316 315 315 315 315 315 315 315 315 316 316 316 316 316 316 316 315 315 315 315 314 313 312 313 313 314 314 314 314 314 314 315 316 317 316 316 316 317 317 317 317 316
296 295 292 295 290 288 295 295 288 282 285 300 305 306 303 302 301 299 300 301 302 303 303 302 303 307 312 310 313 314 316 316 318 318 320 320 322 320 318 319 319 317 316 315 315 314 314 314 314 315 315 316 315 317 316 316 317 316 316 316 314 313 314 313 312 311 311 311 312 313 313 313 314 313 313 314 316 316 315 316 316 316 317 317 316 315
293 292 293 291 292 292 290 289 281 283 296 301 305 306 309 307 304 302 299 301 303 302 303 302 303 307 309 313 313 313 315 317 317 318 320 321 322 320 318 318 318 316 315 315 314 313 313 313 313 313 314 316 315 315 315 314 314 314 313 314 313 312 312 312 311 311 311 311 312 312 313 313 313 313 313 314 315 315 314 315 315 315 316 316 315 315
298 296 293 290 294 287 288 287 286 294 294 300 299 304 302 300 301 299 292 298 303 305 304 303 304 307 312 315 316 317 315 316 314 315 320 320 321 321 321 319 317 316 315 315 314 313 314 315 314 314 315 315 315 315 315 315 314 313 313 312 312 312 311 311 311 311 311 311 312 312 313 313 313 313 313 313 313 313 314 314 314 315 316 315 314 313
300 293 295 290 288 291 288 286 286 286 284 290 299 306 310 313 310 306 300 296 306 307 308 307 306 308 312 314 314 315 317 312 307 310 317 320 320 320 321 321 319 317 316 315 315 315 315 316 317 317 316 316 316 316 315 315 314 313 312 311 311 311 311 311 310 311 311 311 311 312 313 313 313 312 312 313 313 313 314 314 314 315 315 314 313 313
300 300 296 292 289 289 288 285 284 283 285 296 302 305 309 311 312 313 299 293 302 305 306 306 307 310 312 313 314 315 311 306 307 311 318 319 319 320 318 317 317 318 317 316 316 315 315 314 315 316 316 315 315 315 316 315 314 312 311 311 311 311 310 310 310 310 311 311 312 312 313 314 314 313 312 312 313 313 313 313 313 314 314 314 314 313
296 294 293 290 288 289 288 286 285 288 288 298 305 306 306 312 311 306 288 289 304 313 310 307 308 311 313 315 315 313 310 305 308 312 318 319 320 320 317 316 316 316 317 317 317 317 316 316 315 315 315 314 314 316 315 315 313 312 311 310 311 310 309 309 310 311 312 312 312 313 314 314 313 313 313 313 313 313 313 314 314 314 313 313 313 311
292 291 293 289 289 289 287 288 289 289 298 306 305 309 308 310 307 291 286 296 309 312 311 313 312 315 316 314 314 310 314 316 318 319 320 320 318 318 319 319 317 317 316 316 315 312 316 316 316 315 315 315 315 315 315 314 312 310 310 310 310 309 309 310 311 311 311 311 311 311 312 313 312 312 313 313 313 313 313 313 313 313 313 312 312 311
292 291 291 293 289 289 290 287 288 292 299 307 309 307 309 303 289 289 301 308 312 310 314 314 314 316 316 314 314 315 318 319 320 320 320 319 318 317 317 317 316 317 318 315 313 314 316 315 316 315 315 315 315 315 314 313 311 309 310 309 308 308 309 310 311 311 311 311 310 311 311 312 312 313 313 313 313 313 312 313 313 312 312 311 311 310
293 289 289 289 291 292 290 288 287 283 294 307 309 306 307 294 296 303 309 310 311 313 314 315 315 314 314 314 315 316 316 318 319 319 319 318 317 317 316 317 316 316 315 314 314 315 315 315 314 314 314 314 315 314 313 312 310 309 308 308 308 309 309 310 311 311 311 310 310 310 311 312 312 312 312 312 312 312 311 312 312 312 311 311 310 308
302 289 289 291 296 289 288 286 286 296 302 309 306 296 305 306 307 309 310 309 311 314 314 314 314 316 315 315 315 316 317 317 317 318 317 317 316 317 317 316 316 315 314 315 315 315 315 314 314 313 314 313 313 313 313 311 309 308 307 307 309 309 309 310 310 310 309 309 310 310 310 311 312 312 312 311 312 311 310 310 311 310 310 309 308 306
300 297 297 291 298 292 291 294 300 305 306 308 310 308 308 309 310 311 310 310 310 312 315 313 314 316 316 315 315 315 314 316 317 317 315 315 316 316 315 314 314 314 314 314 314 315 315 314 313 312 312 312 312 312 311 310 308 307 306 307 308 307 308 308 308 308 308 309 309 309 310 310 310 311 311 311 311 310 309 309 310 309 309 309 308 306
304 305 305 301 297 302 304 305 306 305 306 307 308 310 308 309 311 311 311 311 311 311 313 315 314 316 317 317 314 313 314 315 315 315 314 315 315 315 315 314 314 315 315 315 314 314 315 315 314 312 311 311 312 312 311 310 308 306 306 307 307 308 309 308 308 308 308 308 309 309 309 309 309 310 311 311 310 310 309 309 309 308 308 307 306 305
304 304 302 296 301 296 290 304 305 303 305 306 306 309 310 310 310 311 311 312 311 313 313 315 315 316 315 316 315 313 313 315 314 314 314 313 314 313 314 313 313 314 314 313 314 313 314 313 312 311 310 309 311 310 309 309 308 308 308 308 308 308 308 308 308 307 308 308 308 309 309 309 309 309 310 310 309 309 309 309 308 307 305 305 305 304
298 305 302 301 301 295 296 303 304 306 306 308 308 307 308 308 310 311 311 313 313 314 315 315 314 314 315 314 314 313 313 314 313 313 313 313 314 313 312 312 312 313 314 314 314 315 314 311 310 310 309 308 309 309 308 308 307 307 308 308 308 308 308 307 307 307 307 308 308 307 308 308 299 304 308 308 308 308 308 307 307 305 302 302 303 303
301 303 295 302 297 295 302 303 305 307 306 307 307 309 308 308 309 309 311 312 313 312 313 313 315 315 314 314 315 313 313 313 313 313 313 313 312 312 311 311 312 312 312 311 312 313 313 312 310 309 308 308 308 308 308 307 307 307 307 307 307 307 306 306 305 306 307 307 307 307 307 307 308 308 305 302 301 298 296 300 306 304 300 299 298 299
302 297 301 298 293 292 295 300 305 297 295 303 305 306 307 309 309 309 310 310 311 311 312 312 312 315 315 315 314 313 313 313 313 312 311 311 309 310 311 311 311 310 310 311 311 312 313 312 311 309 308 308 308 307 306 306 307 307 307 306 306 306 305 306 306 306 306 306 307 308 308 309 307 305 304 302 300 299 297 289 289 294 300 297 291 289
300 301 301 294 292 293 300 303 305 304 304 304 305 306 308 309 309 308 308 309 310 311 312 311 311 311 313 313 315 314 313 313 312 312 310 310 308 308 310 311 310 309 310 310 309 309 310 311 310 309 308 308 307 306 306 306 306 306 307 307 305 306 306 306 305 304 304 304 305 303 307 306 304 304 302 301 300 299 297 296 295 289 288 289 290 289
Wind_Speed
13 16 19 22 19 19 21 20 21 20 15 14 14 14 14 17 9 11 12 12 16 16 18 17 18 20 19 13 14 16 17 17 17 10 9 11 9 8 11 17 18 18 17 16 18 19 19 19 17 17 16 15 15 16 17 16 15 14 14 13 10 7 9 10 11 10 9 10 9 8 9 9 8 8 7 7 6 6 5 6 5 5 4 4 4 4
16 17 21 23 21 21 22 20 20 21 20 15 13 15 14 16 10 13 13 12 12 13 15 17 17 20 21 13 14 15 16 17 18 21 19 18 15 11 16 19 19 15 13 16 17 20 19 17 19 16 15 16 17 15 16 16 15 14 14 13 10 7 5 4 2 2 6 6 6 8 8 7 8 8 7 7 7 6 6 6 5 5 4 5 4 3
18 22 20 20 20 18 17 20 21 21 21 13 12 12 13 12 14 15 16 12 11 13 11 18 18 17 21 17 14 17 17 15 16 17 19 19 20 22 20 19 18 15 16 17 18 20 18 20 19 16 15 15 14 13 15 14 13 12 9 9 8 5 5 0 3 4 3 4 2 5 5 7 7 5 5 6 6 7 6 6 5 5 5 4 4 3
18 18 20 20 18 19 19 20 21 20 18 13 13 10 12 12 15 10 13 12 11 10 10 14 17 14 17 19 16 17 17 15 16 18 16 12 7 7 16 16 15 18 18 20 20 20 19 15 11 11 13 13 10 10 9 12 12 9 6 7 7 3 4 4 3 5 5 6 8 4 6 5 6 6 6 6 7 6 7 6 5 5 3 2 2 3
16 12 18 19 19 21 21 20 20 16 15 15 15 13 12 14 15 10 10 9 10 11 16 13 15 14 15 18 16 16 18 17 16 15 14 12 8 5 10 13 8 17 18 17 18 12 4 11 10 8 9 8 9 8 9 10 10 9 12 10 6 3 3 4 7 8 5 3 6 7 6 5 6 7 6 6 6 6 5 5 5 4 3 3 2 2
18 15 17 21 20 23 22 18 20 17 15 14 18 16 11 11 13 14 9 15 11 12 16 11 10 14 15 19 17 14 16 18 17 17 16 14 11 13 14 14 15 14 3 4 7 6 7 5 9 3 7 10 4 8 8 10 11 13 13 12 11 10 9 7 7 7 7 3 6 8 7 7 7 6 6 6 5 5 5 4 4 5 3 2 0 1
13 16 17 23 22 22 22 18 20 20 16 14 15 19 15 13 13 15 10 11 10 12 14 16 13 9 12 18 18 16 16 19 16 20 18 18 12 10 11 12 12 11 8 9 12 11 10 9 7 9 10 9 10 9 10 10 10 10 12 12 12 9 6 7 8 9 6 6 6 12 8 7 7 6 6 5 5 4 5 5 4 4 2 1 1 2
14 19 18 20 23 21 20 18 18 22 16 14 14 20 18 17 13 13 12 12 9 10 12 19 13 11 13 19 19 17 17 18 19 18 20 20 20 19 13 10 6 5 17 14 11 11 10 5 7 8 7 9 10 11 10 10 9 10 11 11 10 8 7 6 8 9 8 8 7 12 8 7 6 7 7 6 5 4 4 4 4 3 3 2 1 1
17 18 20 22 22 17 18 17 16 20 16 11 13 15 19 18 10 11 13 11 11 9 12 15 19 13 13 13 19 20 21 21 20 20 13 16 11 12 12 11 14 20 18 18 10 10 8 6 8 12 12 11 12 11 9 9 10 8 8 8 8 7 6 5 6 7 7 6 11 10 7 6 5 7 6 6 6 5 4 4 3 2 2 1 1 2
14 18 16 13 14 15 14 17 16 19 17 15 13 13 14 17 13 14 11 11 11 11 13 14 15 13 14 12 15 20 21 22 21 21 18 16 16 15 15 11 20 18 19 17 20 16 15 15 12 10 13 13 10 8 9 6 5 8 8 8 7 7 5 2 3 3 5 8 13 8 7 8 6 6 5 5 6 4 4 4 3 2 1 0 1 1
14 15 16 12 16 15 16 18 19 18 17 14 13 12 15 15 12 10 9 10 9 12 16 19 22 16 12 15 13 14 16 17 18 16 17 21 19 17 16 21 16 18 15 13 12 12 15 16 12 9 13 14 14 12 13 12 11 9 9 9 9 6 4 4 4 6 11 12 12 7 7 7 7 7 6 6 5 4 4 3 2 1 1 1 2 2
16 14 17 14 16 14 16 16 17 16 17 19 9 11 11 12 11 10 9 9 10 12 16 17 16 18 16 12 15 14 14 17 17 19 19 18 20 16 13 19 19 16 15 15 14 12 11 11 11 15 14 15 17 14 12 10 10 11 10 9 8 6 6 2 5 8 11 12 7 6 7 7 7 6 5 5 5 5 3 2 2 2 2 1 2 1
15 14 14 15 15 21 16 14 16 17 18 18 13 13 13 11 9 10 10 11 13 13 11 17 20 15 18 13 11 14 14 15 17 17 17 18 19 20 19 20 18 16 17 15 11 10 11 14 14 18 16 14 18 15 15 13 12 12 11 11 9 8 8 10 9 9 13 7 5 6 7 7 6 5 6 6 5 3 3 2 1 0 1 2 2 2
13 16 20 18 16 16 16 18 16 15 18 19 16 16 16 13 13 11 13 9 12 13 11 13 21 18 11 15 19 14 19 18 18 18 17 15 17 15 20 20 16 16 16 15 15 14 14 17 16 16 16 15 15 17 15 15 15 14 11 12 11 12 11 10 9 7 7 6 5 6 7 7 6 7 6 5 4 2 3 3 1 2 2 2 2 2
15 15 17 20 14 18 21 17 14 13 17 17 15 16 15 13 11 12 13 14 15 11 13 14 14 13 15 8 15 19 7 13 13 14 17 16 12 12 20 21 21 19 17 18 17 17 16 17 19 17 15 13 16 18 17 14 14 13 11 10 13 12 13 11 8 7 1 6 2 5 6 6 6 6 5 5 4 3 2 2 1 1 1 1 4 3
21 11 13 19 11 18 19 18 17 17 17 15 14 14 15 16 10 13 7 10 11 10 10 13 9 9 13 4 10 15 6 5 6 11 10 9 10 10 21 19 19 18 19 18 17 16 16 17 19 16 13 13 14 17 14 15 14 14 14 14 15 14 15 12 11 10 8 7 6 5 7 6 6 5 5 4 4 3 3 2 1 2 2 3 2 3
16 12 16 20 17 17 20 19 18 17 13 14 15 18 17 14 12 6 7 7 5 7 10 6 11 9 5 7 6 9 14 13 11 8 7 8 13 19 15 17 16 15 17 17 17 15 16 18 16 15 13 12 13 13 15 16 16 17 18 17 16 15 11 11 12 11 11 7 5 5 7 6 6 5 5 5 4 3 3 2 2 2 2 2 2 2
13 11 18 18 21 18 19 19 15 17 11 12 16 16 14 14 14 10 8 5 7 9 7 12 15 14 11 8 14 13 7 10 12 11 11 12 13 14 14 13 14 15 15 16 17 16 17 18 17 15 14 15 14 14 15 17 15 16 15 16 15 14 14 12 13 12 11 10 8 7 6 6 5 5 5 4 5 3 3 3 2 2 2 3 2 2
14 10 14 19 17 16 19 17 18 17 19 14 14 9 15 13 16 13 6 10 11 10 8 13 15 13 14 10 12 17 17 15 13 13 14 14 13 15 16 16 13 13 13 14 15 16 16 15 15 14 15 16 15 16 16 15 13 13 14 14 14 14 13 12 11 12 11 10 7 6 5 5 5 4 4 4 3 3 3 2 3 2 3 2 2 2
14 9 11 16 19 17 17 16 16 17 18 18 13 14 13 9 12 12 10 7 9 10 10 12 16 10 13 14 13 14 16 16 16 15 15 15 15 13 14 16 16 16 16 15 16 15 16 16 15 15 16 16 16 16 16 16 15 16 15 15 14 12 11 12 12 12 11 9 8 6 5 4 4 4 4 3 3 3 3 4 3 3 3 3 2 3
11 9 9 14 19 15 15 15 16 17 17 16 15 16 13 11 10 10 9 12 10 9 10 7 10 11 10 11 14 13 14 15 16 16 14 14 14 13 13 17 16 16 16 15 15 16 17 16 16 16 16 16 16 15 15 15 15 14 14 14 14 14 14 14 13 10 9 8 7 7 6 5 4 3 3 3 2 3 4 4 3 3 3 3 4 3
9 12 9 13 16 17 15 15 18 20 19 15 12 16 17 15 13 14 13 13 13 11 8 8 9 6 8 10 10 10 11 12 14 15 15 14 15 13 11 17 16 16 17 16 14 16 17 17 17 16 15 15 16 16 15 15 15 16 15 15 14 13 11 12 11 10 10 8 7 7 6 4 4 2 3 4 3 4 4 4 4 4 4 4 4 3
9 8 10 12 14 14 16 18 17 17 17 18 13 13 14 13 13 13 13 13 13 11 9 11 7 5 6 4 10 9 10 12 13 14 11 10 11 11 11 17 16 17 17 17 19 17 17 17 16 15 16 17 16 15 15 14 14 13 15 15 14 14 13 12 12 11 9 8 7 6 5 4 3 3 3 4 4 5 5 5 5 5 5 4 4 4
6 7 11 12 12 13 15 17 18 18 18 19 20 17 16 18 17 13 11 10 9 11 10 7 7 3 4 6 7 6 5 9 7 10 10 10 9 12 17 15 16 16 17 19 18 17 17 15 14 14 16 15 14 15 15 15 14 15 14 15 14 15 15 13 11 10 9 9 7 6 5 4 3 3 4 4 4 5 5 5 5 5 5 6 5 5
7 9 11 11 11 13 14 14 15 16 17 17 16 17 19 16 16 15 12 6 9 14 13 9 10 5 3 0 3 6 8 8 9 8 10 11 12 14 14 14 14 18 19 20 20 20 20 21 21 19 18 17 17 16 15 16 16 16 16 15 15 15 14 12 11 10 9 8 8 7 6 5 4 5 5 5 5 6 6 6 6 5 6 6 6 6
8 11 12 12 16 17 17 18 19 19 19 14 16 19 21 19 19 14 11 10 8 10 16 10 6 6 7 3 7 8 10 12 8 11 10 11 12 13 13 13 15 16 19 20 19 20 21 19 18 18 18 17 16 16 17 18 17 15 15 15 15 14 13 11 10 11 10 8 8 7 7 6 6 7 7 6 6 6 7 6 6 6 6 7 7 6
8 11 13 12 12 11 12 10 10 13 12 15 17 19 19 20 20 17 11 10 9 7 10 13 10 9 8 7 9 9 9 12 12 11 11 11 11 12 14 14 13 14 18 19 18 17 18 18 19 19 18 17 16 16 16 16 16 16 15 15 14 13 12 12 11 10 9 8 7 7 8 8 7 7 7 6 6 6 6 6 6 7 7 7 7 7
9 11 17 14 14 14 13 10 10 13 15 17 17 18 19 21 19 19 13 12 11 8 9 10 16 13 10 11 10 11 11 12 10 10 11 11 12 12 14 13 13 14 15 14 15 16 15 14 12 15 17 16 14 16 16 16 16 15 14 15 13 13 11 9 10 9 9 8 8 7 8 7 8 8 8 7 7 7 7 7 7 7 7 7 7 7
10 8 14 13 12 12 12 15 14 15 17 17 18 16 18 19 21 19 17 15 14 9 9 11 14 16 7 8 10 12 14 10 9 10 10 10 10 11 14 15 15 15 16 16 15 14 13 13 13 12 14 13 13 15 15 13 13 14 13 13 12 12 12 11 10 10 9 8 8 8 8 8 7 8 8 8 7 7 7 8 7 7 7 7 7 6
9 7 13 14 13 8 6 8 13 18 17 18 18 17 15 16 17 18 17 17 16 12 13 9 8 11 9 11 13 12 12 12 10 9 9 12 14 13 14 14 14 14 17 16 13 15 13 14 12 13 13 13 11 11 12 11 11 11 12 13 13 13 12 11 10 9 9 8 8 8 8 8 8 9 8 8 8 8 8 7 7 7 7 8 7 7
10 6 12 13 10 8 8 8 8 9 13 16 17 17 17 16 16 19 18 16 16 14 14 7 7 9 7 16 13 10 11 10 11 11 11 13 14 16 15 15 15 13 15 15 14 14 14 15 14 14 14 14 14 14 12 11 11 10 10 12 13 12 12 11 11 10 8 8 8 8 8 8 9 9 9 8 8 8 8 8 7 8 8 8 8 8
11 4 11 10 7 8 8 5 7 9 11 15 16 18 19 19 17 16 15 16 16 15 13 10 8 6 8 14 12 9 10 12 12 11 10 12 15 14 16 16 15 16 13 13 13 12 13 14 15 15 14 14 14 13 11 11 9 9 10 10 10 8 8 9 10 11 9 9 9 9 9 9 9 9 9 8 8 8 8 8 8 8 8 8 9 8
9 5 7 9 10 7 8 8 10 12 12 13 14 17 18 17 14 14 14 14 16 13 11 9 9 7 10 12 12 9 11 11 11 11 10 13 15 15 14 15 15 14 11 13 13 12 13 15 17 17 15 14 12 12 13 13 13 12 11 10 9 8 6 8 9 9 9 10 10 9 9 9 9 9 9 8 8 8 8 8 9 9 9 9 9 9
11 6 6 9 7 6 10 6 3 5 11 10 4 12 17 17 18 18 16 17 16 14 11 10 8 11 8 13 13 12 12 11 11 11 10 12 14 11 12 14 16 16 15 16 18 18 15 12 15 15 14 15 15 15 14 13 12 12 11 9 10 9 7 8 8 9 10 10 10 10 10 10 10 10 9 8 8 8 9 9 9 9 9 9 9 9
12 7 5 8 6 4 6 6 3 5 7 4 2 2 8 10 13 15 14 16 17 16 15 13 12 2 9 3 7 9 7 9 9 11 11 12 14 12 15 16 17 19 20 20 20 19 17 16 14 13 14 13 15 16 15 13 10 11 10 9 10 9 9 9 10 10 10 11 10 10 10 10 10 9 9 8 8 9 9 9 9 9 8 8 8 8
7 6 4 4 5 6 2 3 6 3 3 6 3 2 2 4 7 11 13 14 15 16 15 14 9 9 8 4 11 10 8 9 9 8 10 12 14 14 16 16 18 19 20 18 20 19 18 16 16 15 13 11 13 13 13 14 14 12 11 11 11 10 10 10 10 11 10 11 11 11 10 10 10 10 9 9 8 9 9 8 8 9 8 8 8 8
10 7 5 5 7 4 4 8 2 4 1 3 4 6 6 10 12 12 10 12 13 11 13 13 13 9 6 5 7 10 15 11 9 8 10 13 14 15 18 16 16 17 18 18 18 16 15 15 16 17 15 14 12 13 13 13 13 13 13 12 11 11 11 10 11 11 11 11 11 11 11 11 11 10 9 9 9 9 9 8 8 8 8 9 8 8
9 7 7 6 4 3 3 5 5 4 4 5 5 4 2 1 4 11 9 10 13 13 12 12 13 9 8 7 8 14 13 11 9 9 11 12 14 16 17 19 20 19 20 18 17 17 16 16 17 18 17 17 15 14 13 13 13 13 13 12 12 12 11 11 11 11 11 11 11 11 11 11 11 11 10 9 9 9 8 8 7 8 8 8 8 8
9 11 8 7 3 5 6 5 5 5 1 3 10 7 5 3 3 1 9 11 10 16 15 14 12 9 9 10 10 13 11 9 8 11 13 14 15 16 18 19 18 19 20 19 18 18 17 16 16 17 17 16 16 14 14 13 13 12 12 12 12 11 12 11 11 11 11 11 11 11 11 11 11 10 10 10 9 8 9 8 9 8 8 8 7 8
9 5 6 8 7 6 6 5 4 1 1 3 2 4 5 4 4 6 10 7 10 11 11 15 12 10 10 10 10 10 10 7 7 10 15 16 14 15 18 19 19 21 20 19 18 18 18 17 18 17 17 16 15 15 14 13 12 12 12 12 11 12 12 12 11 11 11 11 11 11 11 10 10 10 10 10 10 9 9 9 9 8 8 7 7 8
8 7 7 8 7 6 8 6 1 1 2 3 4 3 4 2 3 6 9 3 4 6 6 6 8 11 10 10 8 8 4 4 1 15 17 16 15 14 17 18 19 21 21 19 19 18 17 17 16 17 16 14 15 14 13 12 12 12 12 12 11 12 12 12 12 12 12 11 11 11 11 10 9 8 9 9 9 9 9 8 8 8 8 8 8 8
8 6 7 6 7 8 7 6 4 3 1 6 2 4 5 4 4 3 5 4 4 5 1 1 9 7 9 9 7 2 2 2 12 18 18 18 16 15 16 18 19 19 19 19 18 18 18 17 17 17 16 15 15 14 12 12 12 13 12 12 12 13 12 12 12 12 12 12 11 11 11 10 8 7 7 10 9 10 9 9 9 8 9 8 8 9
6 6 6 8 5 5 3 5 6 5 1 3 2 4 3 2 3 3 4 2 2 4 2 3 7 7 8 8 7 2 5 11 16 17 18 18 18 17 17 18 21 21 21 20 19 19 18 18 18 17 16 14 14 12 12 13 14 13 12 13 14 12 12 12 12 13 13 12 12 11 12 10 9 9 8 9 9 10 10 9 9 9 9 9 8 9
7 4 2 6 7 6 5 5 1 3 2 7 6 1 7 7 4 5 3 3 0 1 2 3 6 5 5 6 6 7 9 10 12 16 16 16 17 18 18 18 18 19 20 19 19 19 18 18 17 16 16 14 12 12 12 13 13 13 14 14 11 11 11 11 12 13 13 12 12 11 10 11 12 11 10 10 9 9 9 9 9 8 8 7 7 8
1 3 4 2 9 1 0 3 3 2 3 5 5 5 5 5 4 2 6 5 3 2 2 1 5 3 5 8 10 8 7 10 14 15 14 15 17 18 19 18 20 20 19 19 19 19 19 18 18 16 15 13 13 12 12 12 14 15 15 14 13 13 12 12 13 13 13 13 14 13 12 11 11 11 10 10 9 9 8 8 8 7 7 7 7 6
3 3 5 6 1 7 7 6 5 5 4 4 3 3 2 1 2 1 5 4 6 6 5 5 2 3 5 7 9 7 7 11 13 14 13 13 14 16 15 18 19 17 19 19 19 19 19 19 18 17 16 14 13 12 12 12 13 15 14 14 13 13 13 13 14 14 14 14 13 13 12 12 12 11 10 10 8 8 7 7 8 7 6 6 6 6
5 4 6 5 9 7 2 5 5 5 4 3 4 4 2 1 1 1 2 3 5 3 5 4 4 4 3 5 9 9 9 11 12 12 13 14 13 15 16 18 16 17 18 19 18 17 17 19 17 17 16 15 13 12 12 13 13 13 14 14 13 13 13 14 14 14 13 13 13 12 12 12 11 10 10 9 8 6 6 6 6 6 6 6 5 5
7 1 6 3 4 1 4 5 6 4 4 4 3 3 3 3 2 2 1 2 5 5 4 4 1 3 5 5 8 9 10 11 12 12 12 14 11 13 14 15 16 15 16 17 17 19 19 16 16 16 16 14 12 12 12 12 13 14 14 13 13 13 13 13 13 13 14 14 12 11 10 11 9 10 9 8 6 6 7 8 7 9 10 9 6 4
1 6 2 4 3 2 2 5 6 8 8 5 3 4 7 5 3 2 3 2 4 2 2 2 2 2 4 6 9 9 10 12 13 13 13 11 9 10 12 12 11 13 14 17 16 17 18 16 16 16 15 14 13 13 13 13 13 14 14 13 13 13 13 13 13 13 14 13 11 11 10 11 10 10 9 10 11 12 13 9 5 9 10 10 8 9
3 5 11 4 4 5 1 3 2 1 2 5 4 4 3 1 2 2 2 2 1 0 2 2 1 1 2 5 10 9 10 10 14 15 15 11 9 11 12 13 12 14 16 17 15 14 16 17 17 17 16 14 14 13 13 14 13 13 13 13 13 14 14 14 13 13 12 11 11 11 11 9 9 9 9 10 10 11 12 17 19 13 8 8 11 16
5 6 6 5 5 3 5 6 6 6 4 6 4 1 0 1 2 3 3 3 3 4 1 2 3 3 4 3 1 9 10 11 14 15 14 14 11 9 12 13 14 11 13 18 17 16 16 18 18 17 16 15 14 14 14 14 14 13 13 12 12 13 14 14 13 12 11 11 11 9 8 9 10 9 9 10 9 9 11 10 11 15 15 13 14 16
Wind_Direction
179 202 202 209 210 205 210 210 218 226 239 224 223 216 214 227 218 212 221 175 187 202 209 207 208 218 227 199 194 192 194 202 162 180 203 196 183 184 196 198 200 194 192 184 178 176 173 168 160 165 168 168 167 163 160 168 167 165 162 150 155 163 175 168 170 172 171 167 168 170 172 171 172 175 172 168 165 169 148 154 152 156 168 152 166 182
197 210 214 209 208 209 205 211 217 223 232 236 226 215 218 221 214 203 220 156 195 217 199 217 207 215 224 199 202 196 198 205 184 173 204 194 178 180 211 202 203 195 186 184 181 177 175 168 165 167 165 165 166 162 163 164 166 163 159 154 154 165 150 193 231 201 171 171 173 172 176 177 167 169 169 161 163 153 147 152 159 155 172 169 168 195
204 214 212 207 208 213 207 210 216 219 225 224 241 218 220 200 226 181 211 154 199 212 216 204 221 212 219 215 201 204 202 203 203 197 187 182 184 188 200 199 191 191 192 186 185 180 173 169 164 162 162 166 157 161 155 161 161 148 145 157 157 150 158 176 119 254 305 286 199 192 177 178 159 162 167 155 145 145 149 158 159 162 163 168 166 173
204 217 210 206 204 213 211 210 213 216 227 218 227 225 208 197 208 165 212 165 198 208 224 203 218 219 215 222 211 206 204 208 204 202 198 211 191 201 197 184 193 195 193 190 185 183 173 168 151 153 161 160 139 127 159 151 144 137 122 59 54 44 45 128 68 353 328 300 281 276 218 170 158 144 131 131 137 145 152 156 161 148 156 157 177 185
210 200 201 208 202 209 214 207 209 208 214 215 221 212 205 209 202 224 170 173 213 210 240 231 208 220 214 213 209 204 204 209 209 203 184 187 174 119 343 334 251 209 201 192 193 154 104 135 147 183 170 126 129 169 171 147 124 97 102 107 106 71 248 185 179 175 183 255 275 256 164 154 134 140 152 154 149 154 153 147 154 147 151 155 165 210
209 203 188 205 203 207 212 205 205 203 214 204 217 231 229 221 217 212 193 183 196 211 210 232 220 214 208 216 208 198 203 210 202 201 197 199 174 167 164 198 250 253 183 334 65 53 150 84 141 138 80 94 113 131 114 114 121 126 132 152 157 157 199 197 181 187 167 148 226 234 188 162 162 150 158 163 155 158 157 141 121 124 131 133 118 238
210 199 196 199 204 205 206 210 198 203 214 207 203 226 242 244 230 209 213 187 203 210 185 213 227 205 209 217 209 200 203 207 209 204 181 200 189 192 181 188 213 233 99 56 41 78 100 134 109 69 96 130 140 139 145 132 135 133 146 162 167 165 167 186 183 173 170 173 210 238 196 168 163 155 153 132 138 142 129 130 130 117 106 134 129 311
209 199 198 199 203 202 202 210 197 202 212 211 200 201 223 238 234 215 199 204 224 211 193 199 225 243 205 214 204 196 209 212 213 213 197 189 187 193 191 183 211 79 89 78 75 60 88 121 101 106 150 156 143 145 142 136 136 147 164 164 157 158 178 183 161 194 182 177 209 230 196 172 165 157 135 143 135 122 120 122 139 142 125 120 115 269
194 202 202 201 200 199 203 201 190 200 211 213 203 199 205 222 228 225 212 211 234 211 214 189 207 235 250 206 193 199 213 215 212 213 155 187 183 183 195 188 103 111 115 116 108 120 129 137 162 166 167 156 137 133 130 126 138 158 160 156 159 168 176 150 174 188 210 209 210 218 170 161 134 133 145 140 142 142 125 129 141 147 139 107 290 293
189 216 190 191 181 195 199 195 201 192 213 217 221 184 203 210 218 222 220 223 214 234 226 191 199 225 228 237 206 199 214 211 210 209 178 184 187 197 202 138 114 120 132 140 154 163 171 159 185 172 149 137 112 86 78 87 142 153 159 156 155 156 141 115 188 220 225 236 237 195 162 148 147 140 143 135 128 136 133 139 129 136 80 325 186 243
183 212 169 194 196 201 200 207 210 202 211 208 231 188 196 200 207 212 228 224 224 227 234 217 192 217 229 221 219 200 208 212 208 208 205 188 192 202 175 119 132 134 135 144 156 169 171 170 162 161 132 105 109 137 160 163 155 155 155 148 151 128 102 138 234 250 215 226 226 173 155 148 138 133 130 139 138 138 131 127 119 59 40 12 348 320
184 193 190 191 210 214 211 202 203 201 195 214 183 198 180 191 201 209 212 231 230 231 216 224 228 201 235 214 224 213 195 212 213 213 208 199 193 174 171 124 134 133 136 149 170 177 167 150 154 146 134 137 145 151 152 147 146 151 143 142 137 106 117 130 240 245 266 215 185 156 151 138 132 138 138 132 130 123 113 121 90 30 344 292 281 255
189 201 195 196 210 216 193 204 191 188 194 207 178 194 192 183 191 202 200 207 221 227 206 205 218 222 221 238 222 196 203 205 218 219 212 202 209 181 160 146 144 145 141 149 166 170 150 157 160 151 143 145 146 156 159 157 150 145 139 149 148 149 166 177 182 234 240 234 184 135 127 123 126 124 120 122 106 100 95 64 44 332 283 316 302 341
186 193 191 206 203 213 202 207 174 186 195 199 186 189 196 190 187 202 201 209 225 224 226 209 210 237 223 218 244 225 193 205 207 217 218 212 206 199 142 151 149 146 148 159 164 172 164 159 165 155 152 154 152 154 158 156 150 147 148 154 152 167 175 176 192 196 239 239 131 119 122 130 121 106 106 101 96 90 57 37 10 4 1 323 307 338
183 188 196 195 197 189 216 210 180 197 192 200 189 199 205 202 186 193 202 203 211 213 204 222 206 221 219 203 211 246 237 175 200 212 212 212 196 202 136 149 149 150 162 164 163 172 165 165 162 159 161 158 158 156 158 154 151 140 149 153 161 168 174 180 167 105 309 311 318 125 131 121 118 115 120 104 88 88 83 63 18 346 359 320 13 349
204 199 185 201 197 186 204 193 198 194 198 193 194 211 214 213 184 212 202 221 208 215 206 201 232 205 219 186 207 215 191 211 202 203 133 163 179 134 128 140 151 154 160 161 156 166 166 166 163 159 155 160 159 158 148 147 148 149 151 164 169 175 173 174 153 150 159 194 217 125 115 120 117 123 122 116 103 95 74 55 8 54 51 30 344 341
191 202 179 189 195 194 207 193 202 196 196 174 198 210 212 210 201 200 213 245 317 220 222 179 211 235 224 235 263 243 202 177 186 184 181 137 165 125 136 147 152 161 154 155 157 164 164 168 166 160 149 151 153 154 155 152 156 156 156 162 170 171 162 172 159 150 149 151 135 120 108 100 109 112 116 114 107 100 101 101 80 67 83 73 23 343
180 192 173 177 189 187 200 203 205 193 211 173 210 206 206 217 225 205 214 174 230 212 215 191 203 209 200 211 191 216 230 176 185 198 195 199 183 140 139 152 151 154 158 150 154 157 161 166 165 156 153 157 161 162 154 156 158 157 155 166 163 160 160 170 148 134 140 137 122 125 123 120 116 115 116 118 128 118 115 114 106 103 88 58 31 9
193 184 168 178 194 183 192 201 219 198 213 207 204 190 209 183 214 205 204 201 199 212 215 194 203 215 209 217 172 199 206 210 201 193 192 189 195 189 172 150 153 155 151 153 147 160 159 161 159 152 155 159 161 156 153 153 153 151 157 161 158 160 161 147 137 134 127 119 116 114 122 124 120 122 112 110 96 101 112 105 95 85 72 68 41 13
200 191 165 181 198 172 188 197 204 194 203 239 202 209 215 222 213 219 211 210 202 212 220 209 204 218 208 220 196 194 198 204 211 202 195 188 189 191 189 167 161 171 163 153 154 157 160 156 156 161 157 156 154 154 155 155 155 157 154 156 156 148 143 137 129 128 118 112 125 131 136 128 109 101 107 105 118 125 111 102 108 105 95 72 36 32
196 189 169 174 195 172 199 196 202 191 187 203 214 200 196 226 203 231 201 221 203 214 207 218 211 210 205 204 209 188 189 202 210 204 196 184 183 182 186 152 164 163 157 150 152 156 155 157 161 163 162 159 160 157 151 149 152 152 150 145 140 136 132 125 122 108 106 116 122 126 107 116 93 108 101 108 117 125 108 113 104 88 81 75 60 19
199 185 176 168 194 195 202 189 211 197 189 200 210 209 193 199 196 204 208 206 226 207 206 207 227 216 196 195 221 183 188 198 205 203 201 184 180 176 177 154 159 159 151 138 141 151 157 160 163 162 163 163 157 150 146 154 152 149 146 137 131 128 128 125 122 120 119 123 127 120 130 119 122 114 109 115 117 109 110 97 79 79 72 73 70 44
218 166 182 184 194 190 201 173 213 199 197 205 208 218 211 200 211 202 218 199 217 228 218 209 218 204 26 283 187 176 177 196 197 195 173 171 164 172 162 146 154 151 142 144 155 160 158 160 163 160 161 159 149 145 150 145 141 133 131 134 138 134 134 131 129 129 130 128 129 128 126 118 120 126 118 125 124 115 113 103 91 83 88 79 74 61
202 186 172 183 178 177 203 176 197 213 202 208 205 210 213 211 202 220 213 212 212 218 233 210 210 121 86 61 67 103 135 80 72 107 133 151 152 143 123 142 149 146 151 154 154 155 158 156 156 154 155 151 146 149 149 144 142 143 143 145 142 139 137 138 137 133 132 129 130 136 128 126 111 130 129 120 108 98 92 94 87 85 82 77 71 71
186 194 182 170 173 172 185 180 192 210 218 210 202 204 221 218 206 222 232 234 236 218 229 218 214 164 148 104 89 180 171 135 144 134 146 132 117 125 136 141 156 158 160 158 155 158 159 162 166 165 162 161 158 152 153 152 152 153 149 148 145 141 140 137 133 129 129 135 138 135 136 131 141 131 121 119 109 106 102 91 88 79 77 82 78 68
216 185 188 181 181 176 182 188 188 190 203 204 205 205 218 221 206 202 217 206 219 216 226 218 217 96 109 188 170 184 176 164 133 106 99 117 131 139 146 159 157 160 167 163 159 160 163 166 167 167 167 162 159 155 152 152 155 152 148 142 139 134 134 130 124 132 140 144 142 145 139 138 135 126 121 112 106 99 91 91 90 89 80 79 79 72
216 196 194 194 193 192 198 199 170 183 190 213 204 212 205 219 217 208 211 225 218 196 220 215 206 132 141 196 165 165 188 135 141 143 142 145 144 148 154 151 149 159 167 166 162 162 163 169 174 170 166 161 155 153 152 150 150 148 142 135 135 134 133 132 136 140 138 140 142 137 136 139 134 126 117 110 103 96 95 94 92 87 83 78 74 71
218 202 204 204 205 198 189 193 179 198 198 204 209 206 210 203 223 215 208 218 222 219 222 210 221 216 179 173 161 184 160 144 153 149 153 157 159 161 151 144 146 154 166 168 164 163 159 159 169 171 161 153 150 150 148 148 148 139 132 136 133 129 129 132 136 134 133 133 130 131 132 130 128 120 112 107 105 101 99 98 92 86 82 79 73 69
200 205 200 219 226 225 185 195 201 197 207 200 213 211 208 205 210 221 214 222 225 220 226 211 210 226 189 154 163 184 146 153 168 162 160 153 164 163 148 146 155 163 164 174 166 142 151 155 157 146 145 141 138 141 145 146 131 127 134 122 108 121 128 131 132 132 130 126 130 136 131 126 118 113 111 113 110 108 105 101 96 94 89 84 82 77
209 215 194 206 212 207 255 247 215 204 200 203 204 210 210 212 207 212 214 216 221 223 232 246 223 222 207 166 173 140 149 157 153 162 164 159 166 165 149 154 155 168 167 166 151 149 152 150 131 130 104 98 103 98 95 96 109 117 115 126 132 132 132 131 127 120 121 129 135 134 129 126 121 114 114 114 113 112 110 104 100 99 93 89 84 81
226 175 185 196 198 213 239 224 253 236 205 214 203 206 207 210 211 212 214 209 215 219 226 220 276 224 183 90 96 100 121 137 145 159 168 170 169 165 163 153 156 169 176 155 150 150 146 140 118 111 106 98 88 82 82 82 92 102 121 127 129 131 134 132 117 104 122 136 138 131 128 124 117 116 116 117 115 115 111 107 105 100 97 96 89 80
224 219 186 192 206 198 207 234 234 246 234 222 209 204 205 205 206 202 211 206 212 212 217 204 209 217 139 101 108 124 131 149 154 158 160 172 166 170 167 151 159 164 161 138 121 117 126 120 121 118 110 106 106 107 106 104 99 95 112 115 117 108 98 98 109 119 135 141 135 130 127 123 121 120 119 117 114 113 111 110 107 105 99 92 84 78
189 215 191 186 210 189 196 185 204 219 227 227 218 209 205 203 212 203 203 204 211 213 213 215 213 231 118 135 135 152 148 149 159 158 167 166 168 176 158 155 158 155 125 118 124 117 117 120 121 120 119 122 120 119 122 121 115 110 113 110 99 91 92 101 109 123 143 139 132 128 123 120 117 114 116 116 115 116 114 111 110 103 94 89 84 83
177 204 198 182 213 175 184 186 59 210 207 218 208 230 214 209 205 206 203 205 205 205 223 218 228 242 163 160 169 165 159 162 161 168 165 164 163 159 140 155 153 146 131 132 133 128 119 118 124 128 128 128 127 126 128 121 119 120 118 120 120 118 123 126 129 138 139 132 129 128 125 122 120 118 117 121 123 121 118 115 110 109 104 100 96 88
194 187 215 185 217 180 144 148 185 211 213 66 23 286 233 229 223 226 222 207 206 208 220 222 218 347 346 147 140 139 147 146 159 164 163 164 158 157 154 156 152 146 141 137 134 132 127 122 117 120 127 129 129 126 125 124 118 113 118 124 124 127 137 140 136 135 133 129 126 126 123 120 121 119 119 124 126 123 120 115 115 110 105 102 96 91
191 201 199 190 211 104 155 178 181 210 57 269 52 60 88 182 221 225 226 229 225 209 207 224 223 191 186 229 161 155 142 129 142 165 167 159 152 157 156 152 146 142 139 138 134 131 130 131 129 129 125 124 129 132 131 129 132 133 132 133 131 138 139 137 136 135 135 129 128 128 125 123 123 123 125 125 124 119 113 113 111 108 106 103 97 91
202 208 200 205 209 206 182 207 202 112 177 250 194 182 193 200 194 204 210 211 216 222 217 218 219 210 186 158 125 132 137 147 144 164 178 162 151 160 154 142 135 136 133 132 126 125 129 134 139 139 142 145 141 137 133 136 138 137 136 136 138 140 139 138 137 134 130 126 126 126 126 127 128 128 126 122 120 119 120 121 116 108 108 104 100 94
201 221 174 203 196 235 235 209 194 197 221 193 218 133 147 47 235 209 215 225 207 214 223 232 221 200 192 155 153 135 142 160 161 163 177 167 160 161 157 147 139 138 136 132 137 138 141 142 142 142 142 142 139 136 136 136 136 138 138 137 137 138 139 137 132 131 127 125 127 128 130 131 130 128 124 122 120 118 117 114 109 112 111 105 103 97
208 221 219 210 198 196 237 241 212 225 184 334 149 131 158 106 180 99 214 225 197 203 204 219 221 197 181 159 155 156 171 187 174 167 168 165 167 159 152 146 147 144 141 142 141 139 142 140 139 138 137 135 135 139 139 136 138 138 135 137 139 140 138 135 131 130 128 128 129 130 131 132 130 126 124 121 120 118 118 116 114 112 109 102 96 93
204 206 216 217 228 218 223 221 219 249 106 78 66 140 116 80 95 186 202 195 357 324 192 202 210 184 154 152 157 183 195 204 172 160 162 168 167 145 141 147 146 145 144 139 141 139 136 137 140 139 137 137 136 140 141 143 140 133 138 140 140 138 134 132 132 129 127 127 128 129 128 126 125 127 127 123 121 121 118 118 115 113 108 106 104 98
194 208 209 223 223 208 223 239 175 107 356 48 126 204 113 118 234 171 204 98 360 323 348 283 181 144 143 147 170 183 183 21 115 140 155 158 138 136 144 140 144 149 145 142 135 135 138 140 139 138 137 136 139 142 143 139 134 137 138 139 137 133 132 134 134 131 129 129 129 131 132 126 111 117 122 123 121 119 115 111 111 107 104 103 100 97
187 205 204 222 215 212 206 222 224 74 349 293 95 120 128 168 184 178 53 275 357 313 228 324 98 141 151 165 181 160 90 176 131 141 153 151 152 151 153 144 144 149 144 129 133 144 142 140 138 135 136 141 143 143 138 137 138 139 138 138 133 130 134 136 135 132 132 131 130 132 130 128 117 109 112 124 123 120 115 113 113 111 108 108 106 105
174 189 201 203 200 242 226 223 220 192 122 281 151 108 44 296 77 182 277 33 331 323 123 94 139 162 174 161 150 104 100 128 138 145 146 150 153 152 155 155 152 150 143 141 149 147 143 141 143 143 142 143 143 141 138 140 139 139 135 134 134 136 137 138 137 134 131 130 129 130 130 127 123 122 126 122 117 118 118 113 107 103 107 110 107 106
352 232 197 210 193 212 203 213 211 60 68 31 25 56 59 55 44 27 345 178 133 9 81 125 143 197 154 164 126 114 113 129 141 143 141 141 151 153 155 152 141 140 144 150 148 146 145 143 143 142 143 141 140 138 140 142 141 138 137 135 134 133 136 136 133 130 129 130 130 129 128 128 128 126 123 123 121 118 118 118 119 120 117 122 119 120
213 309 341 52 349 290 358 74 92 108 52 87 82 92 83 104 77 11 341 300 57 96 348 26 106 131 165 125 99 105 139 144 145 143 142 157 156 157 156 156 140 144 151 153 149 151 150 146 143 141 141 143 141 138 140 143 142 141 138 136 137 138 135 134 133 133 131 130 131 132 129 126 125 124 125 123 123 118 117 124 126 126 129 121 123 120
169 122 109 91 72 89 77 62 111 131 154 121 108 115 116 157 99 354 344 352 55 27 30 21 74 129 138 144 127 154 142 141 146 153 147 155 156 153 154 142 144 151 155 152 147 157 153 145 141 139 141 142 143 141 139 140 144 141 139 140 140 139 137 137 136 134 131 130 132 133 132 130 128 127 126 123 121 121 120 130 136 129 118 119 119 117
131 180 171 195 155 205 130 170 116 96 115 141 139 132 126 327 55 304 313 326 13 21 38 34 28 108 106 170 158 152 149 148 149 147 149 165 161 158 153 144 147 157 159 152 153 156 153 145 142 143 143 144 143 139 137 141 142 139 140 141 141 140 139 137 135 132 131 130 132 134 133 132 131 130 127 122 122 128 135 120 111 116 127 123 113 108
140 87 241 210 156 260 102 117 115 112 96 152 170 153 171 119 14 15 343 342 323 350 42 59 62 119 156 171 150 155 158 155 151 148 152 162 154 144 134 145 152 158 152 150 156 157 146 143 142 143 142 139 139 138 140 141 140 140 140 140 141 140 139 137 136 135 133 131 132 132 135 131 133 133 127 116 102 117 132 135 83 53 41 24 19 127
297 259 212 223 120 25 118 106 130 142 137 124 155 32 36 16 10 34 341 304 216 193 80 65 16 152 166 151 143 164 167 165 155 152 155 142 106 126 136 148 156 145 141 148 156 163 154 144 140 137 140 138 138 140 141 140 140 141 138 138 138 139 140 137 137 134 134 134 136 132 134 145 147 125 93 75 74 58 33 27 65 87 66 43 36 21
299 358 336 297 186 135 16 60 57 156 133 116 72 57 44 136 275 327 353 47 1 76 142 120 108 177 166 162 165 168 184 166 157 151 158 141 119 120 131 139 143 145 147 151 152 156 158 145 142 139 141 138 140 140 139 139 140 141 138 135 138 139 139 140 136 135 134 137 138 142 154 139 119 120 115 106 90 80 67 54 48 38 57 68 38 48
25 13 14 45 20 67 54 65 86 119 92 69 76 92 71 337 15 18 35 12 19 359 331 155 157 180 178 51 10 184 175 162 146 148 150 155 130 120 127 134 133 136 147 151 145 137 143 145 140 142 141 139 139 138 139 139 140 140 142 140 139 141 141 140 136 135 134 137 138 136 131 129 133 129 121 118 113 104 104 93 64 53 55 59 55 53